Location: Madrid
(40.4000°N, 3.6830°W)
Time: 00:33:55
(UTC+02:00)

ISS - Pass Details

Date: 17 July 2019
Orbit: 409 x 418 km, 51.6° (Epoch: 22 July)

Event Time Altitude Azimuth Distance (km) Brightness Sun altitude
Rises 22:11:34 0° 201° (SSW) 2,340 -0.1 -5.5°
Reaches altitude 10° 22:13:57 10° 185° (S) 1,481 -1.3 -5.9°
Maximum altitude 22:16:34 22° 133° (SE) 969 -2.5 -6.3°
Drops below altitude 10° 22:19:12 10° 81° (E) 1,485 -1.4 -6.7°
Sets 22:21:35 0° 65° (ENE) 2,349 -0.2 -7.1°
